STARLINK-32339, 61640

Orbit data source: Space-Track

STARLINK-32339, 61640 is a payload satellite owned by SpaceX/Seattle (US) in LEO that was launched on Wed, 23 Oct 2024 UTC via an FALCON 9 launch vehicle from the Air Force Eastern Test Range (AFETR). Payload-class satellites include a variety of spacecraft equipped with specific instruments for various scientific and technological missions. These include communications satellites like Starlink; space stations such as the ISS; scientific satellites like the Hubble; Earth observation satellites from companies like Planet Labs, Umbra, and HawkEye 360; GPS; miniature CubeSats for education and research; and military/defense satellites.

Loading next visibility...
Identifier
61640, 2024-191V
Orbit
LEO
Last TLE update
14 hours ago
Origin
Manufacturer
SpaceX/Seattle
Mission
Operational Commercial Communications
Bus & Motor
STARLINK V2M, Unknown motor
Mass
730 kg wet, ~700 kg dry
Launch date (UTC)
2024-10-23 (8 months ago)
Launch vehicle
FALCON 9
Launch site
Air Force Eastern Test Range (AFETR)
Object type
Payload
Rocket body
Debris
Shape & HBR
Box + 2 Pan, 29 m
Radar Cross Section
36.964 m², Large (>1 m²)

Expand to show TLE details & history

TLE from 14 hours ago
0 STARLINK-32339
1 61640U 24191V   25186.15649222  .00001079  00000-0  48715-4 0  9993
2 61640  42.9986 112.0744 0001137 256.7420 103.3305 15.27581370 40394
Epoch: 2025-07-05T03:45Z
TLE epoch observation values (Epoch: 2025-07-05T03:45:20.927Z)
Latitude
-0.00002°
Longitude
132.3386°
Altitude
483 km
Speed
7.626 km/s
True Right ascension
07h 28m 17s
True Declination
0° 00' 00"
Sunlit
Object was in daylight at epoch
Visualization orbit readout
Latitude
22.99089°
Longitude
155.88221°
Altitude
483.211 km
Speed
7.627 km/s
Apparent Right ascension
12h 23m 52s
Apparent Declination
-17° 00' 11"
Sunlit
Object is in daylight
Visualization observer readout
Local Sidereal Time
05:57:18
Azimuth
99.167° ESE
Elevation
-15.814°
Doppler factor
1
Orbital elements
Apogee altitude
485.771 km
Perigee altitude
484.21 km
Semi-major axis
6,863.127 km
Eccentricity
0.00011
Inclination
42.9986°
RAAN
112.0744°
Arg. of periapsis
256.742°
True anomaly
Unknown
Mean anomaly
103.3305°
Eccentric anomaly
Unknown
Mean motion
3.81733 °/min
Orbital period
94.31 mins
BSTAR
0.000048715
Loading maneuver chart data...
Loading SW <> Apogee altitude chart data...
Loading historical data...
Loading historical data...
Loading historical data...
Loading historical data...
Loading historical data...
Loading historical data...
Loading historical data...

STARLINK-32339 Visibility forecast

Observer location: undefined°, undefined°

Span
Click to sort rows by Start time (UTC) header in descending order
Start Az.
Max El. time (UTC)
Max El. Az.
Max El.
End time (UTC)
End Az.
5 mins2025-07-05 22:49:50.153Z226.516° WSW2025-07-05 22:51:50.153Z153.893° SSE40.42°2025-07-05 22:54:50.153Z78.26° E
5 mins2025-07-06 00:28:50.153Z282.414° WNW2025-07-06 00:30:50.153Z353.973° N39.705°2025-07-06 00:33:50.153Z69.628° E
5 mins2025-07-06 02:07:50.153Z295.137° NW2025-07-06 02:09:50.153Z351.679° N41.012°2025-07-06 02:12:50.153Z89.375° E
5 mins2025-07-06 03:46:50.153Z270.455° WNW2025-07-06 03:48:50.153Z213.492° SW35.149°2025-07-06 03:51:50.153Z137.986° SSE
|